Weather History for Holland, MI

Change the Weather History Date:

Tuesday, February 5, 2013

  Actual Average Record
Temperature  
Mean Temperature 17 °F 26 °F  
Max Temperature 32 °F 33 °F 52 °F (1962)
Min Temperature 2 °F 20 °F -7 °F (1961)
Degree Days  
Heating Degree Days 48 39  
Month to date heating degree days 243 195  
Since 1 July heating degree days 3419 3669  
Cooling Degree Days 0 0  
Month to date cooling degree days 0 0  
Year to date cooling degree days 0 0  
Moisture  
Dew Point 18 °F    
Average Humidity 77    
Maximum Humidity 85    
Minimum Humidity 69    
Precipitation  
Precipitation 0.03 in 0.05 in 0.63 in (1986)
Month to date precipitation 0.28 0.24  
Year to date precipitation 3.44 2.33  
Sea Level Pressure  
Sea Level Pressure 29.86 in    
Wind  
Wind Speed 7 mph (SW)    
Max Wind Speed 23 mph    
Max Gust Speed 29 mph    
Visibility 5 miles    
Events Snow    
T = Trace of Precipitation, MM = Missing Value Source: NWS Daily Summary

Daily Weather History Graph

Daily Weather History Graph

Search for Another Location

Airport:

Trip Planner

Search our weather history database for the weather conditions in past years. The results will help you decide how hot, cold, wet, or windy it might be!

Date:

Astronomy

Feb. 05, 2013 Rise Set
Actual Time 7:54 AM EST 6:03 PM EST
Civil Twilight 7:24 AM EST 6:32 PM EST
Nautical Twilight 6:50 AM EST 7:06 PM EST
Astronomical Twilight 6:17 AM EST 7:39 PM EST
Moon 3:37 AM EST (2/5) 1:17 PM EST (2/5)
Length of Visible Light 11h 08m
Length of Day
10h 09m
Waning Crescent, 27% of the Moon is Illuminated
Feb 5
Waning Crescent
Feb 10
New
Feb 17
First Quarter
Feb 25
Full
Mar 4
Last Quarter

Hourly Weather History & Observations

Time (EST) Temp. Windchill Dew Point Humidity Pressure Visibility Wind Dir Wind Speed Gust Speed Precip Events Conditions
12:53 AM 12.9 °F - 8.1 °F 81% 29.97 in 8.0 mi Calm Calm - N/A   Scattered Clouds
1:53 AM 10.9 °F - 5.0 °F 77% 29.96 in 8.0 mi Calm Calm - N/A   Scattered Clouds
2:53 AM 10.0 °F - 3.9 °F 76% 29.96 in 7.0 mi Calm Calm - N/A   Clear
3:53 AM 6.1 °F - 1.0 °F 80% 29.94 in 6.0 mi Calm Calm - N/A   Haze
4:53 AM 3.0 °F -4.4 °F -2.9 °F 76% 29.93 in 5.0 mi SSE 3.5 mph - N/A   Haze
5:53 AM 8.1 °F 1.4 °F 1.9 °F 76% 29.94 in 4.0 mi SSE 3.5 mph - N/A   Haze
6:53 AM 12.9 °F 1.6 °F 8.1 °F 81% 29.92 in 6.0 mi SSE 8.1 mph - N/A   Haze
7:25 AM 14.0 °F 3.9 °F 8.6 °F 79% 29.89 in 7.0 mi SSE 6.9 mph - N/A   Scattered Clouds
7:40 AM 15.8 °F 5.1 °F 10.4 °F 79% 29.89 in 7.0 mi South 8.1 mph - N/A   Mostly Cloudy
7:53 AM 16.0 °F 2.9 °F 10.0 °F 77% 29.93 in 7.0 mi South 11.5 mph - N/A   Overcast
8:12 AM 15.8 °F 2.1 °F 10.4 °F 79% 29.87 in 6.0 mi SSE 12.7 mph - N/A   Haze
8:53 AM 17.1 °F 5.8 °F 12.0 °F 81% 29.91 in 7.0 mi South 9.2 mph - N/A   Overcast
9:53 AM 21.0 °F 8.6 °F 16.0 °F 81% 29.87 in 5.0 mi South 12.7 mph - N/A   Haze
10:24 AM 21.2 °F 10.1 °F 17.6 °F 86% 29.84 in 6.0 mi South 10.4 mph - N/A   Haze
10:53 AM 24.1 °F 13.7 °F 18.0 °F 77% 29.87 in 5.0 mi South 10.4 mph - N/A   Haze
11:01 AM 24.8 °F 14.0 °F 19.4 °F 80% 29.83 in 1.5 mi South 11.5 mph - 0.00 in Snow Light Snow
11:06 AM 24.8 °F 15.3 °F 19.4 °F 80% 29.83 in 0.8 mi South 9.2 mph - 0.00 in Snow Light Snow
11:15 AM 24.8 °F 15.3 °F 19.4 °F 80% 29.82 in 0.8 mi South 9.2 mph - 0.00 in Snow Light Snow
11:24 AM 24.8 °F 13.4 °F 19.4 °F 80% 29.81 in 1.5 mi South 12.7 mph - 0.00 in Snow Light Snow
11:29 AM 26.6 °F 15.7 °F 19.4 °F 74% 29.80 in 3.0 mi South 12.7 mph - 0.00 in   Haze
11:53 AM 27.0 °F 16.7 °F 19.9 °F 75% 29.84 in 8.0 mi South 11.5 mph - 0.00 in   Overcast
12:53 PM 30.0 °F 18.3 °F 21.9 °F 72% 29.83 in 10.0 mi SW 17.3 mph 21.9 mph N/A   Overcast
1:43 PM 30.2 °F 20.8 °F 21.2 °F 69% 29.78 in 1.8 mi SSW 11.5 mph - 0.00 in Snow Light Snow
1:50 PM 28.4 °F 18.0 °F 23.0 °F 80% 29.78 in 0.8 mi SSW 12.7 mph - 0.00 in Snow Light Snow
1:53 PM 28.9 °F 18.6 °F 23.0 °F 78% 29.81 in 0.5 mi SW 12.7 mph - 0.00 in Snow Snow
2:00 PM 28.4 °F 18.5 °F 24.8 °F 86% 29.78 in 0.2 mi SW 11.5 mph - 0.01 in Snow Heavy Snow
2:53 PM 30.9 °F 19.1 °F 26.1 °F 82% 29.81 in 0.5 mi WSW 18.4 mph 24.2 mph 0.02 in Snow Snow
3:13 PM 30.2 °F 18.1 °F 24.8 °F 80% 29.78 in 1.0 mi WSW 18.4 mph 25.3 mph 0.01 in Snow Light Snow
3:28 PM 30.2 °F 20.2 °F 24.8 °F 80% 29.78 in 0.8 mi WSW 12.7 mph - 0.01 in Snow Light Snow
3:40 PM 30.2 °F 18.9 °F 24.8 °F 80% 29.78 in 1.2 mi WSW 16.1 mph - 0.01 in Snow Light Snow
3:42 PM 30.2 °F 18.9 °F 24.8 °F 80% 29.78 in 1.8 mi WSW 16.1 mph - 0.01 in Snow Light Snow
3:44 PM 30.2 °F 19.8 °F 24.8 °F 80% 29.79 in 2.5 mi WSW 13.8 mph - 0.01 in Snow Light Snow
3:53 PM 30.9 °F 21.7 °F 25.0 °F 79% 29.83 in 1.8 mi WSW 11.5 mph - 0.01 in Snow Light Snow
4:01 PM 30.2 °F 19.3 °F 24.8 °F 80% 29.79 in 3.0 mi WSW 15.0 mph - 0.00 in Snow Light Snow
4:29 PM 32.0 °F 22.5 °F 24.8 °F 75% 29.80 in 9.0 mi West 12.7 mph - 0.00 in   Overcast
4:53 PM 30.9 °F 21.7 °F 24.1 °F 76% 29.84 in 9.0 mi West 11.5 mph - 0.00 in   Overcast
5:53 PM 30.9 °F 22.8 °F 24.1 °F 76% 29.86 in 5.0 mi West 9.2 mph - N/A   Haze
6:32 PM 30.2 °F 22.6 °F 24.8 °F 80% 29.84 in 3.0 mi WNW 8.1 mph - N/A   Haze
6:45 PM 30.2 °F 21.9 °F 24.8 °F 80% 29.85 in 4.0 mi WNW 9.2 mph - N/A   Haze
6:53 PM 30.0 °F 22.4 °F 25.0 °F 82% 29.89 in 5.0 mi NW 8.1 mph - N/A   Haze
7:06 PM 30.2 °F 21.3 °F 24.8 °F 80% 29.86 in 5.0 mi NW 10.4 mph - N/A   Haze
7:21 PM 30.2 °F 24.3 °F 24.8 °F 80% 29.87 in 5.0 mi WNW 5.8 mph - N/A   Haze
7:34 PM 30.2 °F 23.4 °F 24.8 °F 80% 29.87 in 8.0 mi WNW 6.9 mph - N/A   Overcast
7:53 PM 30.9 °F 23.5 °F 24.1 °F 76% 29.91 in 9.0 mi WNW 8.1 mph - N/A   Overcast
8:53 PM 30.9 °F 21.2 °F 23.0 °F 72% 29.95 in 8.0 mi NW 12.7 mph 21.9 mph 0.00 in   Overcast
9:53 PM 30.0 °F 23.2 °F 21.9 °F 72% 29.99 in 9.0 mi NNW 6.9 mph - 0.00 in   Overcast
11:53 PM 28.0 °F 24.2 °F 19.0 °F 69% 30.04 in 10.0 mi Variable 3.5 mph - N/A   Overcast